EW0860 Weather Reports


time (UTC)temp
C
wind
direction
speed
KPH
gust
KPH
rain 1hr
cm
rain 24hr
cm
rain mn
cm
humidity
%
barometer
mb
20260504081510 18 21 0.0 0.0 0.00 0.00 0.00 56 1001.8
20260504044539 19 16 0.0 6.4 0.00 0.00 0.00 59 1003.5
20260504043042 20 14 4.8 8.0 0.00 0.00 0.00 55 1003.8
20260504041535 18 26 3.2 8.0 0.00 0.00 0.00 60 1005.1
20260504040034 17 23 3.2 8.0 0.00 0.00 0.00 69 1005.5
20260504034534 17 25 0.0 3.2 0.00 0.00 0.00 73 1004.5
20260504033031 17 24 0.0 3.2 0.00 0.00 0.00 73 1004.9
20260504031531 17 24 0.0 4.8 0.00 0.00 0.00 72 1004.5
20260504030031 17 21 0.0 3.2 0.00 0.00 0.00 73 1004.9
20260504024531 17 21 0.0 3.2 0.00 0.00 0.00 72 1004.6
20260504023029 17 21 0.0 3.2 0.00 0.00 0.00 70 1004.5
20260504021533 18 21 0.0 3.2 0.00 0.00 0.00 69 1004.4
20260504020034 18 21 0.0 0.0 0.00 0.00 0.00 67 1004.3
20260504014534 19 21 0.0 0.0 0.00 0.00 0.00 65 1004.3
20260504013025 20 23 0.0 0.0 0.00 0.00 0.00 62 1004.2
20260504011524 21 23 0.0 0.0 0.00 0.00 0.00 60 1004.2
20260504010022 22 25 0.0 0.0 0.00 0.00 0.00 57 1004.2
20260504004521 23 359 0.0 0.0 0.00 0.00 0.00 52 1004.3
20260504003019 25 359 0.0 0.0 0.00 0.00 0.00 45 1004.5
20260504001519 26 305 0.0 0.0 0.00 0.00 0.00 40 1004.5
20260504000018 26 359 0.0 3.2 0.00 0.00 0.00 38 1004.6
20260503234520 26 305 1.6 4.8 0.00 0.00 0.00 37 1004.8
20260503233015 26 305 1.6 8.0 0.00 0.00 0.00 36 1004.9
20260503231520 27 289 3.2 8.0 0.00 0.00 0.00 35 1005.0
20260503230015 26 288 1.6 9.7 0.00 0.00 0.00 36 1005.2
20260503224511 27 276 3.2 11.3 0.00 0.00 0.00 35 1005.4
20260503223010 27 269 1.6 11.3 0.00 0.00 0.00 34 1005.4
20260503221509 27 211 6.4 12.9 0.00 0.00 0.00 36 1005.5
20260503220007 27 348 3.2 9.7 0.00 0.00 0.00 35 1005.7
20260503214520 27 282 3.2 11.3 0.00 0.00 0.00 35 1005.8
20260503213005 27 305 4.8 12.9 0.00 0.00 0.00 36 1006.1
20260503211502 27 275 3.2 12.9 0.00 0.00 0.00 36 1006.3
20260503210100 27 300 3.2 11.3 0.00 0.00 0.00 36 1006.3
20260503204559 27 234 4.8 19.3 0.00 0.00 0.00 36 1006.5
20260503203056 27 274 3.2 12.9 0.00 0.00 0.00 36 1006.7
20260503201553 26 299 3.2 11.3 0.00 0.00 0.00 37 1006.9
20260503200100 26 262 3.2 14.5 0.00 0.00 0.00 38 1007.1
20260503194558 26 258 4.8 17.7 0.00 0.00 0.00 38 1007.2
20260503193057 26 316 3.2 19.3 0.00 0.00 0.00 39 1007.4
20260503191549 26 265 4.8 16.1 0.00 0.00 0.00 39 1007.6
20260503190048 26 179 4.8 14.5 0.00 0.00 0.00 40 1007.7
20260503184551 25 303 6.4 19.3 0.00 0.00 0.00 41 1007.9
20260503183041 25 287 4.8 14.5 0.00 0.00 0.00 44 1008.2
20260503181542 24 137 8.0 24.1 0.00 0.00 0.00 44 1008.5
20260503180046 23 206 6.4 25.7 0.00 0.00 0.00 47 1008.8
20260503174539 23 192 8.0 20.9 0.00 0.00 0.00 47 1009.1
20260503173035 23 208 8.0 19.3 0.00 0.00 0.00 46 1009.3
20260503171522 22 181 11.3 24.1 0.00 0.00 0.00 46 1009.3